Time,TemperatureF,DewpointF,PressureIn,WindDirection,WindDirectionDegrees,WindSpeedMPH,WindSpeedGustMPH,Humidity,HourlyPrecipIn,Conditions,Clouds,dailyrainin,SoftwareType,DateUTC
2013-03-23 00:00:00,30.5,28.2,30.12,East,96,4.0,4.0,91,0.00,,,0.01,Wunderground v.1.15,2013-03-23 05:00:00,
2013-03-23 00:10:00,30.5,27.9,30.12,East,90,4.0,8.0,90,0.00,,,0.00,Wunderground v.1.15,2013-03-23 05:10:00,
2013-03-23 00:15:00,30.4,27.8,30.12,East,90,4.0,8.0,90,0.00,,,0.00,Wunderground v.1.15,2013-03-23 05:15:00,
2013-03-23 00:20:00,30.4,27.8,30.12,East,90,4.0,8.0,90,0.00,,,0.00,Wunderground v.1.15,2013-03-23 05:20:00,
2013-03-23 00:25:00,30.4,27.5,30.12,East,90,4.0,8.0,89,0.00,,,0.00,Wunderground v.1.15,2013-03-23 05:25:00,
2013-03-23 00:30:00,30.4,27.5,30.12,East,90,4.0,4.0,89,0.00,,,0.00,Wunderground v.1.15,2013-03-23 05:30:00,
2013-03-23 00:40:00,30.4,27.3,30.12,East,90,4.0,8.0,88,0.00,,,0.00,Wunderground v.1.15,2013-03-23 05:40:00,
2013-03-23 00:45:00,30.4,27.3,30.12,East,90,5.0,8.0,88,0.00,,,0.00,Wunderground v.1.15,2013-03-23 05:45:00,
2013-03-23 00:55:00,30.4,27.3,30.12,East,92,5.0,8.0,88,0.00,,,0.00,Wunderground v.1.15,2013-03-23 05:55:00,
2013-03-23 01:00:00,30.4,27.3,30.12,ESE,104,6.0,6.0,88,0.00,,,0.00,Wunderground v.1.15,2013-03-23 06:00:00,
2013-03-23 01:05:00,30.4,27.3,30.12,ESE,103,5.0,8.0,88,0.00,,,0.00,Wunderground v.1.15,2013-03-23 06:05:00,
2013-03-23 01:10:00,30.4,27.3,30.13,ESE,103,4.0,4.0,88,0.00,,,0.00,Wunderground v.1.15,2013-03-23 06:10:00,
2013-03-23 01:15:00,30.4,27.3,30.13,ESE,103,3.0,8.0,88,0.00,,,0.00,Wunderground v.1.15,2013-03-23 06:15:00,
2013-03-23 01:20:00,30.4,27.0,30.14,ESE,103,3.0,8.0,87,0.00,,,0.00,Wunderground v.1.15,2013-03-23 06:20:00,
2013-03-23 01:25:00,30.4,27.0,30.14,ESE,103,3.0,8.0,87,0.00,,,0.00,Wunderground v.1.15,2013-03-23 06:25:00,
2013-03-23 01:35:00,30.4,27.0,30.15,ESE,103,3.0,8.0,87,0.00,,,0.00,Wunderground v.1.15,2013-03-23 06:35:00,
2013-03-23 01:40:00,30.4,27.0,30.14,ESE,103,3.0,8.0,87,0.00,,,0.00,Wunderground v.1.15,2013-03-23 06:40:00,
2013-03-23 01:45:00,30.4,26.7,30.14,ESE,103,3.0,8.0,86,0.00,,,0.00,Wunderground v.1.15,2013-03-23 06:45:00,
2013-03-23 01:55:00,30.4,26.7,30.14,ESE,103,2.0,8.0,86,0.00,,,0.00,Wunderground v.1.15,2013-03-23 06:55:00,
2013-03-23 02:00:00,30.4,26.7,30.15,ESE,103,1.0,8.0,86,0.00,,,0.00,Wunderground v.1.15,2013-03-23 07:00:00,
2013-03-23 02:05:00,30.4,26.7,30.15,ESE,103,1.0,8.0,86,0.00,,,0.00,Wunderground v.1.15,2013-03-23 07:05:00,
2013-03-23 02:10:00,30.4,26.7,30.13,ESE,103,1.0,8.0,86,0.00,,,0.00,Wunderground v.1.15,2013-03-23 07:10:00,
2013-03-23 02:15:00,30.3,26.6,30.14,ESE,103,1.0,8.0,86,0.00,,,0.00,Wunderground v.1.15,2013-03-23 07:15:00,
2013-03-23 02:20:00,30.4,26.7,30.14,ESE,103,2.0,8.0,86,0.00,,,0.00,Wunderground v.1.15,2013-03-23 07:20:00,
2013-03-23 02:25:00,30.3,26.3,30.13,ESE,103,3.0,8.0,85,0.00,,,0.00,Wunderground v.1.15,2013-03-23 07:25:00,
2013-03-23 02:30:00,30.3,26.3,30.13,East,101,3.0,8.0,85,0.00,,,0.00,Wunderground v.1.15,2013-03-23 07:30:00,
2013-03-23 02:35:00,30.3,26.3,30.13,East,100,3.0,8.0,85,0.00,,,0.00,Wunderground v.1.15,2013-03-23 07:35:00,
2013-03-23 02:40:00,30.3,26.3,30.13,ENE,73,4.0,8.0,85,0.00,,,0.00,Wunderground v.1.15,2013-03-23 07:40:00,
2013-03-23 02:45:00,30.2,26.2,30.12,ENE,67,6.0,8.0,85,0.00,,,0.00,Wunderground v.1.15,2013-03-23 07:45:00,
2013-03-23 02:50:00,30.2,26.2,30.12,ENE,65,6.0,6.0,85,0.00,,,0.00,Wunderground v.1.15,2013-03-23 07:50:00,
2013-03-23 02:55:00,30.2,25.9,30.11,ENE,65,5.0,8.0,84,0.00,,,0.00,Wunderground v.1.15,2013-03-23 07:55:00,
2013-03-23 03:00:00,30.1,25.6,30.12,ENE,65,5.0,5.0,83,0.00,,,0.00,Wunderground v.1.15,2013-03-23 08:00:00,
2013-03-23 03:05:00,30.1,25.6,30.12,ENE,65,4.0,7.0,83,0.00,,,0.00,Wunderground v.1.15,2013-03-23 08:05:00,
2013-03-23 03:10:00,30.1,25.6,30.11,ENE,63,5.0,8.0,83,0.00,,,0.00,Wunderground v.1.15,2013-03-23 08:10:00,
2013-03-23 03:15:00,30.0,25.8,30.12,ENE,59,6.0,8.0,84,0.00,,,0.00,Wunderground v.1.15,2013-03-23 08:15:00,
2013-03-23 03:20:00,29.9,25.9,30.13,ENE,59,5.0,5.0,85,0.00,,,0.00,Wunderground v.1.15,2013-03-23 08:20:00,
2013-03-23 03:30:00,29.8,26.4,30.13,ENE,59,3.0,8.0,87,0.00,,,0.00,Wunderground v.1.15,2013-03-23 08:30:00,
2013-03-23 03:40:00,29.8,26.7,30.14,NE,55,4.0,8.0,88,0.00,,,0.00,Wunderground v.1.15,2013-03-23 08:40:00,
2013-03-23 03:45:00,29.7,26.6,30.14,NE,55,4.0,8.0,88,0.00,,,0.00,Wunderground v.1.15,2013-03-23 08:45:00,
2013-03-23 03:50:00,29.7,26.6,30.14,NE,55,3.0,8.0,88,0.00,,,0.00,Wunderground v.1.15,2013-03-23 08:50:00,
2013-03-23 03:55:00,29.6,26.2,30.14,NE,55,3.0,8.0,87,0.00,,,0.00,Wunderground v.1.15,2013-03-23 08:55:00,
2013-03-23 04:00:00,29.6,26.2,30.14,NE,55,3.0,8.0,87,0.00,,,0.00,Wunderground v.1.15,2013-03-23 09:00:00,
2013-03-23 04:10:00,29.6,25.9,30.14,NE,55,2.0,8.0,86,0.00,,,0.00,Wunderground v.1.15,2013-03-23 09:10:00,
2013-03-23 04:15:00,29.6,25.6,30.14,NE,55,2.0,8.0,85,0.00,,,0.00,Wunderground v.1.15,2013-03-23 09:15:00,
2013-03-23 04:20:00,29.6,25.4,30.14,NE,55,3.0,8.0,84,0.00,,,0.00,Wunderground v.1.15,2013-03-23 09:20:00,
2013-03-23 04:25:00,29.6,25.4,30.14,NE,55,3.0,8.0,84,0.00,,,0.00,Wunderground v.1.15,2013-03-23 09:25:00,
2013-03-23 04:30:00,29.6,25.4,30.14,NE,55,3.0,3.0,84,0.00,,,0.00,Wunderground v.1.15,2013-03-23 09:30:00,
2013-03-23 04:35:00,29.5,25.0,30.14,NE,55,3.0,4.0,83,0.00,,,0.00,Wunderground v.1.15,2013-03-23 09:35:00,
2013-03-23 04:45:00,29.4,24.6,30.15,NE,55,3.0,8.0,82,0.00,,,0.00,Wunderground v.1.15,2013-03-23 09:45:00,
2013-03-23 04:50:00,29.4,24.6,30.15,NE,55,3.0,8.0,82,0.00,,,0.00,Wunderground v.1.15,2013-03-23 09:50:00,
2013-03-23 04:55:00,29.4,24.3,30.15,NE,55,4.0,8.0,81,0.00,,,0.00,Wunderground v.1.15,2013-03-23 09:55:00,
2013-03-23 05:00:00,29.4,24.3,30.15,NE,55,5.0,5.0,81,0.00,,,0.00,Wunderground v.1.15,2013-03-23 10:00:00,
2013-03-23 05:05:00,29.3,24.2,30.14,NE,55,4.0,8.0,81,0.00,,,0.00,Wunderground v.1.15,2013-03-23 10:05:00,
2013-03-23 05:15:00,29.3,24.2,30.14,NE,55,4.0,8.0,81,0.00,,,0.00,Wunderground v.1.15,2013-03-23 10:15:00,
2013-03-23 05:20:00,29.3,24.5,30.14,NE,55,4.0,8.0,82,0.00,,,0.00,Wunderground v.1.15,2013-03-23 10:20:00,
2013-03-23 05:25:00,29.3,24.5,30.14,NE,55,4.0,8.0,82,0.00,,,0.00,Wunderground v.1.15,2013-03-23 10:25:00,
2013-03-23 05:30:00,29.3,24.5,30.14,NE,55,4.0,8.0,82,0.00,,,0.00,Wunderground v.1.15,2013-03-23 10:30:00,
2013-03-23 05:35:00,29.3,24.5,30.14,NE,55,4.0,8.0,82,0.00,,,0.00,Wunderground v.1.15,2013-03-23 10:35:00,
2013-03-23 05:45:00,29.3,24.5,30.13,NE,55,5.0,8.0,82,0.00,,,0.00,Wunderground v.1.15,2013-03-23 10:45:00,
2013-03-23 05:50:00,29.3,24.5,30.13,NE,55,6.0,8.0,82,0.00,,,0.00,Wunderground v.1.15,2013-03-23 10:50:00,
2013-03-23 05:55:00,29.2,24.4,30.13,NE,56,6.0,8.0,82,0.00,,,0.00,Wunderground v.1.15,2013-03-23 10:55:00,
2013-03-23 06:00:00,29.2,24.4,30.14,NE,56,7.0,7.0,82,0.00,,,0.00,Wunderground v.1.15,2013-03-23 11:00:00,
2013-03-23 06:05:00,29.2,24.7,30.14,NE,49,6.0,8.0,83,0.00,,,0.00,Wunderground v.1.15,2013-03-23 11:05:00,
2013-03-23 06:10:00,29.2,24.7,30.14,NE,46,7.0,7.0,83,0.00,,,0.00,Wunderground v.1.15,2013-03-23 11:10:00,
2013-03-23 06:15:00,29.1,24.6,30.14,NE,46,7.0,8.0,83,0.00,,,0.00,Wunderground v.1.15,2013-03-23 11:15:00,
2013-03-23 06:20:00,29.2,24.7,30.15,NE,46,6.0,6.0,83,0.00,,,0.00,Wunderground v.1.15,2013-03-23 11:20:00,
2013-03-23 06:25:00,29.2,25.0,30.15,NE,46,4.0,8.0,84,0.00,,,0.00,Wunderground v.1.15,2013-03-23 11:25:00,
2013-03-23 06:30:00,29.2,24.7,30.16,NE,46,4.0,8.0,83,0.00,,,0.00,Wunderground v.1.15,2013-03-23 11:30:00,
2013-03-23 06:40:00,29.2,24.7,30.16,NE,46,4.0,8.0,83,0.00,,,0.00,Wunderground v.1.15,2013-03-23 11:40:00,
2013-03-23 06:45:00,29.2,24.7,30.16,NE,46,5.0,8.0,83,0.00,,,0.00,Wunderground v.1.15,2013-03-23 11:45:00,
2013-03-23 06:50:00,29.2,24.7,30.15,NE,43,5.0,8.0,83,0.00,,,0.00,Wunderground v.1.15,2013-03-23 11:50:00,
2013-03-23 06:55:00,29.2,24.7,30.15,NE,42,5.0,8.0,83,0.00,,,0.00,Wunderground v.1.15,2013-03-23 11:55:00,
2013-03-23 07:00:00,29.1,24.6,30.15,NE,42,5.0,5.0,83,0.00,,,0.00,Wunderground v.1.15,2013-03-23 12:00:00,
2013-03-23 07:05:00,29.1,24.9,30.15,NE,42,6.0,7.0,84,0.00,,,0.00,Wunderground v.1.15,2013-03-23 12:05:00,
2013-03-23 07:15:00,29.0,24.5,30.15,NE,44,7.0,9.0,83,0.00,,,0.00,Wunderground v.1.15,2013-03-23 12:15:00,
2013-03-23 07:20:00,29.0,24.5,30.14,NE,47,7.0,9.0,83,0.00,,,0.00,Wunderground v.1.15,2013-03-23 12:20:00,
2013-03-23 07:25:00,28.9,24.4,30.14,NE,47,8.0,11.0,83,0.00,,,0.00,Wunderground v.1.15,2013-03-23 12:25:00,
2013-03-23 07:30:00,28.9,24.4,30.14,NE,42,9.0,9.0,83,0.00,,,0.00,Wunderground v.1.15,2013-03-23 12:30:00,
2013-03-23 07:35:00,28.8,24.6,30.14,NE,42,9.0,9.0,84,0.00,,,0.00,Wunderground v.1.15,2013-03-23 12:35:00,
2013-03-23 07:40:00,28.8,24.6,30.14,NE,53,8.0,9.0,84,0.00,,,0.00,Wunderground v.1.15,2013-03-23 12:40:00,
2013-03-23 07:50:00,28.8,24.3,30.16,NE,40,7.0,7.0,83,0.00,,,0.00,Wunderground v.1.15,2013-03-23 12:50:00,
2013-03-23 07:55:00,28.9,24.4,30.17,NE,34,6.0,8.0,83,0.00,,,0.00,Wunderground v.1.15,2013-03-23 12:55:00,
2013-03-23 08:00:00,28.9,24.7,30.17,NNE,28,6.0,8.0,84,0.00,,,0.00,Wunderground v.1.15,2013-03-23 13:00:00,
2013-03-23 08:05:00,29.0,24.5,30.17,NNE,30,6.0,8.0,83,0.00,,,0.00,Wunderground v.1.15,2013-03-23 13:05:00,
2013-03-23 08:15:00,29.0,24.5,30.18,NNE,28,6.0,8.0,83,0.00,,,0.00,Wunderground v.1.15,2013-03-23 13:15:00,
2013-03-23 08:20:00,29.0,24.5,30.18,NNE,28,5.0,5.0,83,0.00,,,0.00,Wunderground v.1.15,2013-03-23 13:20:00,
2013-03-23 08:25:00,29.1,24.6,30.18,NNE,31,5.0,8.0,83,0.00,,,0.00,Wunderground v.1.15,2013-03-23 13:25:00,
2013-03-23 08:30:00,29.0,24.5,30.18,NE,35,5.0,8.0,83,0.00,,,0.00,Wunderground v.1.15,2013-03-23 13:30:00,
2013-03-23 08:35:00,29.0,24.5,30.18,NE,40,6.0,8.0,83,0.00,,,0.00,Wunderground v.1.15,2013-03-23 13:35:00,
2013-03-23 08:40:00,29.0,24.5,30.18,NE,40,7.0,9.0,83,0.00,,,0.00,Wunderground v.1.15,2013-03-23 13:40:00,
2013-03-23 08:45:00,29.0,24.5,30.18,NE,41,7.0,9.0,83,0.00,,,0.00,Wunderground v.1.15,2013-03-23 13:45:00,
2013-03-23 08:50:00,29.2,24.7,30.19,NNE,28,6.0,8.0,83,0.00,,,0.00,Wunderground v.1.15,2013-03-23 13:50:00,
2013-03-23 09:00:00,28.8,24.9,30.20,NE,56,7.0,7.0,85,0.00,,,0.00,Wunderground v.1.15,2013-03-23 14:00:00,
2013-03-23 09:05:00,28.4,24.7,30.20,NE,54,7.0,8.0,86,0.00,,,0.00,Wunderground v.1.15,2013-03-23 14:05:00,
2013-03-23 09:10:00,28.1,25.0,30.20,NE,55,7.0,8.0,88,0.00,,,0.00,Wunderground v.1.15,2013-03-23 14:10:00,
2013-03-23 09:15:00,28.0,25.2,30.20,NE,52,7.0,11.0,89,0.00,,,0.00,Wunderground v.1.15,2013-03-23 14:15:00,
2013-03-23 09:20:00,28.0,25.2,30.19,NE,51,8.0,12.0,89,0.00,,,0.00,Wunderground v.1.15,2013-03-23 14:20:00,
2013-03-23 09:25:00,27.9,25.3,30.19,ENE,57,9.0,12.0,90,0.00,,,0.00,Wunderground v.1.15,2013-03-23 14:25:00,
2013-03-23 09:35:00,28.1,25.8,30.20,NE,48,9.0,11.0,91,0.00,,,0.00,Wunderground v.1.15,2013-03-23 14:35:00,
2013-03-23 09:40:00,28.0,25.7,30.20,NE,54,9.0,9.0,91,0.00,,,0.00,Wunderground v.1.15,2013-03-23 14:40:00,
2013-03-23 09:45:00,28.1,25.8,30.20,NE,50,9.0,9.0,91,0.00,,,0.00,Wunderground v.1.15,2013-03-23 14:45:00,
2013-03-23 09:50:00,28.1,25.8,30.20,ENE,59,8.0,8.0,91,0.00,,,0.00,Wunderground v.1.15,2013-03-23 14:50:00,
2013-03-23 09:55:00,28.2,25.9,30.20,ENE,76,7.0,8.0,91,0.00,,,0.00,Wunderground v.1.15,2013-03-23 14:55:00,
2013-03-23 10:00:00,28.1,25.8,30.20,NE,51,8.0,11.0,91,0.00,,,0.00,Wunderground v.1.15,2013-03-23 15:00:00,
2013-03-23 10:05:00,28.0,25.7,30.20,NE,51,10.0,11.0,91,0.00,,,0.00,Wunderground v.1.15,2013-03-23 15:05:00,
2013-03-23 10:10:00,28.1,25.8,30.20,ENE,61,10.0,10.0,91,0.00,,,0.00,Wunderground v.1.15,2013-03-23 15:10:00,
2013-03-23 10:15:00,28.2,25.9,30.20,NE,53,10.0,10.0,91,0.00,,,0.00,Wunderground v.1.15,2013-03-23 15:15:00,
2013-03-23 10:20:00,28.2,25.9,30.19,ENE,63,10.0,10.0,91,0.00,,,0.00,Wunderground v.1.15,2013-03-23 15:20:00,
2013-03-23 10:25:00,28.3,26.0,30.20,NE,41,10.0,12.0,91,0.00,,,0.00,Wunderground v.1.15,2013-03-23 15:25:00,
2013-03-23 10:30:00,28.3,26.0,30.19,NE,49,11.0,11.0,91,0.00,,,0.00,Wunderground v.1.15,2013-03-23 15:30:00,
2013-03-23 10:35:00,28.3,26.0,30.19,NE,53,12.0,12.0,91,0.00,,,0.00,Wunderground v.1.15,2013-03-23 15:35:00,
2013-03-23 10:45:00,28.6,26.3,30.19,NE,47,10.0,11.0,91,0.00,,,0.00,Wunderground v.1.15,2013-03-23 15:45:00,
2013-03-23 10:50:00,28.6,26.3,30.19,NE,48,10.0,10.0,91,0.00,,,0.00,Wunderground v.1.15,2013-03-23 15:50:00,
2013-03-23 10:55:00,28.6,26.3,30.19,NE,54,10.0,10.0,91,0.00,,,0.00,Wunderground v.1.15,2013-03-23 15:55:00,
2013-03-23 11:00:00,28.7,26.7,30.19,NE,51,10.0,10.0,92,0.00,,,0.00,Wunderground v.1.15,2013-03-23 16:00:00,
2013-03-23 11:05:00,28.5,26.5,30.19,ENE,58,10.0,10.0,92,0.00,,,0.00,Wunderground v.1.15,2013-03-23 16:05:00,
2013-03-23 11:15:00,28.7,26.7,30.18,NE,47,10.0,11.0,92,0.00,,,0.00,Wunderground v.1.15,2013-03-23 16:15:00,
2013-03-23 11:20:00,28.7,26.7,30.18,NE,46,11.0,12.0,92,0.00,,,0.00,Wunderground v.1.15,2013-03-23 16:20:00,
2013-03-23 11:25:00,28.7,26.7,30.18,NE,51,12.0,13.0,92,0.00,,,0.00,Wunderground v.1.15,2013-03-23 16:25:00,
2013-03-23 11:30:00,28.9,27.1,30.18,NE,49,12.0,14.0,93,0.00,,,0.00,Wunderground v.1.15,2013-03-23 16:30:00,
2013-03-23 11:35:00,28.9,27.1,30.18,NE,48,11.0,14.0,93,0.00,,,0.00,Wunderground v.1.15,2013-03-23 16:35:00,
2013-03-23 11:45:00,29.1,27.3,30.18,NNE,24,11.0,12.0,93,0.00,,,0.00,Wunderground v.1.15,2013-03-23 16:45:00,
2013-03-23 11:50:00,29.3,27.5,30.18,NNE,32,11.0,11.0,93,0.00,,,0.00,Wunderground v.1.15,2013-03-23 16:50:00,
2013-03-23 11:55:00,29.2,27.2,30.18,NNE,32,11.0,13.0,92,0.00,,,0.00,Wunderground v.1.15,2013-03-23 16:55:00,
2013-03-23 12:00:00,29.1,27.1,30.18,NE,46,13.0,14.0,92,0.00,,,0.00,Wunderground v.1.15,2013-03-23 17:00:00,
2013-03-23 12:05:00,29.4,27.4,30.17,NNE,32,14.0,14.0,92,0.00,,,0.00,Wunderground v.1.15,2013-03-23 17:05:00,
2013-03-23 12:10:00,29.7,27.7,30.18,NNE,26,13.0,13.0,92,0.00,,,0.00,Wunderground v.1.15,2013-03-23 17:10:00,
2013-03-23 12:15:00,29.8,27.8,30.18,NE,48,12.0,14.0,92,0.00,,,0.00,Wunderground v.1.15,2013-03-23 17:15:00,
2013-03-23 12:20:00,29.8,27.8,30.17,NNE,31,12.0,13.0,92,0.00,,,0.00,Wunderground v.1.15,2013-03-23 17:20:00,
2013-03-23 12:30:00,29.9,27.9,30.17,ENE,61,13.0,18.0,92,0.00,,,0.00,Wunderground v.1.15,2013-03-23 17:30:00,
2013-03-23 12:35:00,29.9,27.9,30.17,NE,44,13.0,18.0,92,0.00,,,0.00,Wunderground v.1.15,2013-03-23 17:35:00,
2013-03-23 12:40:00,29.9,27.6,30.17,NE,42,14.0,14.0,91,0.00,,,0.00,Wunderground v.1.15,2013-03-23 17:40:00,
2013-03-23 12:45:00,30.4,28.1,30.17,NE,54,14.0,15.0,91,0.00,,,0.00,Wunderground v.1.15,2013-03-23 17:45:00,
2013-03-23 12:50:00,30.2,27.9,30.17,NNE,27,13.0,13.0,91,0.00,,,0.00,Wunderground v.1.15,2013-03-23 17:50:00,
2013-03-23 12:55:00,30.2,27.9,30.17,NE,53,13.0,16.0,91,0.00,,,0.00,Wunderground v.1.15,2013-03-23 17:55:00,
2013-03-23 13:00:00,30.3,28.3,30.16,NE,39,13.0,13.0,92,0.00,,,0.00,Wunderground v.1.15,2013-03-23 18:00:00,
2013-03-23 13:05:00,30.3,28.3,30.16,NE,47,13.0,15.0,92,0.00,,,0.00,Wunderground v.1.15,2013-03-23 18:05:00,
2013-03-23 13:10:00,30.2,28.2,30.17,ENE,61,13.0,13.0,92,0.00,,,0.00,Wunderground v.1.15,2013-03-23 18:10:00,
2013-03-23 13:15:00,30.3,28.3,30.16,NE,47,13.0,13.0,92,0.00,,,0.00,Wunderground v.1.15,2013-03-23 18:15:00,
2013-03-23 13:25:00,30.2,28.2,30.16,North,5,12.0,12.0,92,0.00,,,0.00,Wunderground v.1.15,2013-03-23 18:25:00,
2013-03-23 13:30:00,30.5,28.5,30.16,NE,42,11.0,12.0,92,0.00,,,0.00,Wunderground v.1.15,2013-03-23 18:30:00,
2013-03-23 13:35:00,30.7,28.7,30.16,NE,46,10.0,12.0,92,0.00,,,0.00,Wunderground v.1.15,2013-03-23 18:35:00,
2013-03-23 13:40:00,30.6,28.6,30.16,NE,40,11.0,11.0,92,0.00,,,0.00,Wunderground v.1.15,2013-03-23 18:40:00,
2013-03-23 13:45:00,30.5,28.5,30.16,NNE,30,11.0,11.0,92,0.00,,,0.00,Wunderground v.1.15,2013-03-23 18:45:00,
2013-03-23 13:50:00,30.7,28.7,30.16,NE,51,12.0,16.0,92,0.00,,,0.00,Wunderground v.1.15,2013-03-23 18:50:00,
2013-03-23 14:00:00,30.5,28.5,30.16,NE,51,12.0,12.0,92,0.00,,,0.00,Wunderground v.1.15,2013-03-23 19:00:00,
2013-03-23 14:05:00,30.5,28.5,30.16,NE,38,12.0,12.0,92,0.00,,,0.00,Wunderground v.1.15,2013-03-23 19:05:00,
2013-03-23 14:10:00,30.3,28.3,30.16,NE,51,12.0,12.0,92,0.00,,,0.00,Wunderground v.1.15,2013-03-23 19:10:00,
2013-03-23 14:15:00,30.5,28.5,30.15,NE,35,13.0,13.0,92,0.00,,,0.00,Wunderground v.1.15,2013-03-23 19:15:00,
2013-03-23 14:20:00,30.5,28.5,30.15,NE,38,13.0,15.0,92,0.00,,,0.00,Wunderground v.1.15,2013-03-23 19:20:00,
2013-03-23 14:30:00,30.4,28.4,30.15,NE,49,12.0,12.0,92,0.00,,,0.00,Wunderground v.1.15,2013-03-23 19:30:00,
2013-03-23 14:35:00,30.1,28.1,30.15,NE,42,14.0,14.0,92,0.00,,,0.00,Wunderground v.1.15,2013-03-23 19:35:00,
2013-03-23 14:40:00,30.5,28.5,30.15,NE,38,14.0,14.0,92,0.00,,,0.00,Wunderground v.1.15,2013-03-23 19:40:00,
2013-03-23 14:45:00,30.7,28.7,30.15,ENE,63,12.0,14.0,92,0.00,,,0.00,Wunderground v.1.15,2013-03-23 19:45:00,
2013-03-23 14:50:00,30.7,28.7,30.14,NE,54,12.0,12.0,92,0.00,,,0.00,Wunderground v.1.15,2013-03-23 19:50:00,
2013-03-23 14:55:00,30.9,28.9,30.14,North,9,12.0,12.0,92,0.00,,,0.00,Wunderground v.1.15,2013-03-23 19:55:00,
2013-03-23 15:05:00,30.6,28.6,30.14,ENE,58,10.0,14.0,92,0.00,,,0.00,Wunderground v.1.15,2013-03-23 20:05:00,
2013-03-23 15:10:00,30.7,28.7,30.14,NNE,31,10.0,11.0,92,0.00,,,0.00,Wunderground v.1.15,2013-03-23 20:10:00,
2013-03-23 15:15:00,30.7,28.7,30.14,NNE,17,10.0,12.0,92,0.00,,,0.00,Wunderground v.1.15,2013-03-23 20:15:00,
2013-03-23 15:20:00,30.8,28.8,30.14,NE,36,10.0,16.0,92,0.00,,,0.00,Wunderground v.1.15,2013-03-23 20:20:00,
2013-03-23 15:25:00,31.1,29.3,30.14,NNE,29,10.0,16.0,93,0.00,,,0.00,Wunderground v.1.15,2013-03-23 20:25:00,
2013-03-23 15:35:00,30.8,28.8,30.14,NE,49,11.0,11.0,92,0.00,,,0.00,Wunderground v.1.15,2013-03-23 20:35:00,
2013-03-23 15:40:00,30.5,28.7,30.14,North,5,12.0,13.0,93,0.00,,,0.00,Wunderground v.1.15,2013-03-23 20:40:00,
2013-03-23 15:45:00,30.5,28.5,30.14,NNE,27,12.0,13.0,92,0.00,,,0.00,Wunderground v.1.15,2013-03-23 20:45:00,
2013-03-23 15:50:00,30.6,28.8,30.14,NNE,23,11.0,11.0,93,0.00,,,0.00,Wunderground v.1.15,2013-03-23 20:50:00,
2013-03-23 15:55:00,30.8,29.0,30.14,NNE,13,11.0,11.0,93,0.00,,,0.00,Wunderground v.1.15,2013-03-23 20:55:00,
2013-03-23 16:00:00,30.5,28.7,30.14,NNE,24,11.0,13.0,93,0.00,,,0.00,Wunderground v.1.15,2013-03-23 21:00:00,
2013-03-23 16:10:00,30.5,28.7,30.14,NNE,17,11.0,11.0,93,0.00,,,0.00,Wunderground v.1.15,2013-03-23 21:10:00,
2013-03-23 16:15:00,30.5,28.7,30.14,NE,43,10.0,11.0,93,0.00,,,0.00,Wunderground v.1.15,2013-03-23 21:15:00,
2013-03-23 16:20:00,30.6,29.1,30.14,NE,34,10.0,10.0,94,0.00,,,0.00,Wunderground v.1.15,2013-03-23 21:20:00,
2013-03-23 16:25:00,30.5,29.0,30.15,NNE,13,10.0,14.0,94,0.00,,,0.00,Wunderground v.1.15,2013-03-23 21:25:00,
2013-03-23 16:30:00,30.2,28.7,30.15,NNE,22,11.0,11.0,94,0.00,,,0.00,Wunderground v.1.15,2013-03-23 21:30:00,
2013-03-23 16:35:00,30.2,28.7,30.15,NNE,31,12.0,13.0,94,0.00,,,0.00,Wunderground v.1.15,2013-03-23 21:35:00,
2013-03-23 16:40:00,30.1,28.6,30.15,NNE,14,11.0,14.0,94,0.00,,,0.00,Wunderground v.1.15,2013-03-23 21:40:00,
2013-03-23 16:45:00,29.8,28.0,30.15,NNE,15,12.0,14.0,93,0.00,,,0.00,Wunderground v.1.15,2013-03-23 21:45:00,
2013-03-23 16:50:00,29.8,28.3,30.15,NNE,25,13.0,13.0,94,0.00,,,0.00,Wunderground v.1.15,2013-03-23 21:50:00,
2013-03-23 16:55:00,30.0,28.5,30.14,NNE,32,13.0,15.0,94,0.00,,,0.00,Wunderground v.1.15,2013-03-23 21:55:00,
2013-03-23 17:05:00,30.1,28.6,30.15,NNE,17,15.0,16.0,94,0.00,,,0.00,Wunderground v.1.15,2013-03-23 22:05:00,
2013-03-23 17:10:00,30.0,28.5,30.15,NNE,32,14.0,15.0,94,0.00,,,0.00,Wunderground v.1.15,2013-03-23 22:10:00,
2013-03-23 17:15:00,30.1,28.6,30.15,NNE,22,14.0,15.0,94,0.00,,,0.00,Wunderground v.1.15,2013-03-23 22:15:00,
2013-03-23 17:20:00,29.9,28.4,30.15,NNE,22,13.0,14.0,94,0.00,,,0.00,Wunderground v.1.15,2013-03-23 22:20:00,
2013-03-23 17:25:00,29.9,28.4,30.15,NNE,23,13.0,14.0,94,0.00,,,0.00,Wunderground v.1.15,2013-03-23 22:25:00,
2013-03-23 17:30:00,30.0,28.5,30.15,NNE,22,13.0,14.0,94,0.00,,,0.00,Wunderground v.1.15,2013-03-23 22:30:00,
2013-03-23 17:35:00,29.7,28.2,30.15,NNE,30,13.0,18.0,94,0.00,,,0.00,Wunderground v.1.15,2013-03-23 22:35:00,
2013-03-23 17:45:00,29.7,28.2,30.15,North,360,15.0,19.0,94,0.00,,,0.00,Wunderground v.1.15,2013-03-23 22:45:00,
2013-03-23 17:55:00,29.7,28.2,30.15,North,5,13.0,16.0,94,0.00,,,0.00,Wunderground v.1.15,2013-03-23 22:55:00,
2013-03-23 18:00:00,29.5,28.0,30.16,NNE,19,14.0,14.0,94,0.00,,,0.00,Wunderground v.1.15,2013-03-23 23:00:00,
2013-03-23 18:05:00,29.6,28.1,30.16,NNE,30,14.0,14.0,94,0.00,,,0.00,Wunderground v.1.15,2013-03-23 23:05:00,
2013-03-23 18:10:00,29.6,28.1,30.16,NNE,17,14.0,14.0,94,0.00,,,0.00,Wunderground v.1.15,2013-03-23 23:10:00,
2013-03-23 18:15:00,29.7,28.2,30.16,NNE,26,13.0,14.0,94,0.00,,,0.00,Wunderground v.1.15,2013-03-23 23:15:00,
2013-03-23 18:20:00,29.7,28.2,30.16,NNE,13,12.0,13.0,94,0.00,,,0.00,Wunderground v.1.15,2013-03-23 23:20:00,
2013-03-23 18:25:00,29.5,28.0,30.17,NNE,17,12.0,13.0,94,0.00,,,0.00,Wunderground v.1.15,2013-03-23 23:25:00,
2013-03-23 18:30:00,29.3,27.8,30.17,NE,47,12.0,12.0,94,0.00,,,0.00,Wunderground v.1.15,2013-03-23 23:30:00,
2013-03-23 18:35:00,29.2,27.7,30.17,NNE,25,11.0,12.0,94,0.00,,,0.00,Wunderground v.1.15,2013-03-23 23:35:00,
2013-03-23 18:40:00,29.4,27.9,30.17,North,5,11.0,11.0,94,0.00,,,0.00,Wunderground v.1.15,2013-03-23 23:40:00,
2013-03-23 18:45:00,29.3,27.8,30.17,NE,46,12.0,13.0,94,0.00,,,0.00,Wunderground v.1.15,2013-03-23 23:45:00,
2013-03-23 18:50:00,29.2,27.7,30.17,NNE,32,13.0,17.0,94,0.00,,,0.00,Wunderground v.1.15,2013-03-23 23:50:00,
2013-03-23 18:55:00,29.2,27.4,30.17,NE,46,15.0,17.0,93,0.00,,,0.00,Wunderground v.1.15,2013-03-23 23:55:00,
2013-03-23 19:00:00,29.3,27.5,30.18,NNE,17,14.0,14.0,93,0.00,,,0.00,Wunderground v.1.15,2013-03-24 00:00:00,
2013-03-23 19:10:00,29.2,27.4,30.18,NNE,30,12.0,14.0,93,0.00,,,0.00,Wunderground v.1.15,2013-03-24 00:10:00,
2013-03-23 19:15:00,29.2,27.7,30.18,NE,44,14.0,15.0,94,0.00,,,0.00,Wunderground v.1.15,2013-03-24 00:15:00,
2013-03-23 19:25:00,29.0,27.5,30.18,NE,42,14.0,14.0,94,0.00,,,0.00,Wunderground v.1.15,2013-03-24 00:25:00,
2013-03-23 19:35:00,28.8,27.0,30.18,NNE,12,13.0,20.0,93,0.00,,,0.00,Wunderground v.1.15,2013-03-24 00:35:00,
2013-03-23 19:40:00,28.7,26.9,30.18,North,5,13.0,13.0,93,0.00,,,0.00,Wunderground v.1.15,2013-03-24 00:40:00,
2013-03-23 19:45:00,28.8,27.3,30.18,NNE,12,13.0,16.0,94,0.00,,,0.00,Wunderground v.1.15,2013-03-24 00:45:00,
2013-03-23 19:55:00,28.8,27.3,30.18,NNE,28,13.0,20.0,94,0.00,,,0.00,Wunderground v.1.15,2013-03-24 00:55:00,
2013-03-23 20:00:00,28.9,27.4,30.18,North,360,12.0,12.0,94,0.00,,,0.00,Wunderground v.1.15,2013-03-24 01:00:00,
2013-03-23 20:10:00,28.9,27.4,30.18,NNE,17,14.0,14.0,94,0.00,,,0.00,Wunderground v.1.15,2013-03-24 01:10:00,
2013-03-23 20:15:00,28.9,27.4,30.18,NNE,15,14.0,20.0,94,0.00,,,0.00,Wunderground v.1.15,2013-03-24 01:15:00,
2013-03-23 20:20:00,28.9,27.4,30.18,NE,40,12.0,12.0,94,0.00,,,0.00,Wunderground v.1.15,2013-03-24 01:20:00,
2013-03-23 20:25:00,28.9,27.4,30.18,North,9,12.0,20.0,94,0.00,,,0.00,Wunderground v.1.15,2013-03-24 01:25:00,
2013-03-23 20:35:00,28.9,27.4,30.18,NNE,12,10.0,14.0,94,0.00,,,0.00,Wunderground v.1.15,2013-03-24 01:35:00,
2013-03-23 20:40:00,28.8,27.3,30.18,NNE,19,10.0,10.0,94,0.00,,,0.00,Wunderground v.1.15,2013-03-24 01:40:00,
2013-03-23 20:50:00,28.8,27.3,30.19,NNE,19,9.0,10.0,94,0.00,,,0.00,Wunderground v.1.15,2013-03-24 01:50:00,
2013-03-23 20:55:00,28.8,27.3,30.19,North,360,9.0,10.0,94,0.00,,,0.00,Wunderground v.1.15,2013-03-24 01:55:00,
2013-03-23 21:00:00,28.9,27.4,30.19,NNE,13,9.0,9.0,94,0.00,,,0.00,Wunderground v.1.15,2013-03-24 02:00:00,
2013-03-23 21:05:00,29.0,27.5,30.19,NNE,16,8.0,21.0,94,0.00,,,0.00,Wunderground v.1.15,2013-03-24 02:05:00,
2013-03-23 21:10:00,29.0,27.5,30.19,NNE,30,8.0,8.0,94,0.00,,,0.00,Wunderground v.1.15,2013-03-24 02:10:00,
2013-03-23 21:15:00,29.0,27.5,30.19,North,360,9.0,11.0,94,0.00,,,0.00,Wunderground v.1.15,2013-03-24 02:15:00,
2013-03-23 21:20:00,29.0,27.5,30.19,NNE,20,11.0,21.0,94,0.00,,,0.00,Wunderground v.1.15,2013-03-24 02:20:00,
2013-03-23 21:25:00,29.0,27.5,30.18,NNE,20,10.0,21.0,94,0.00,,,0.00,Wunderground v.1.15,2013-03-24 02:25:00,
2013-03-23 21:30:00,28.9,27.4,30.18,NNE,13,9.0,21.0,94,0.00,,,0.00,Wunderground v.1.15,2013-03-24 02:30:00,
2013-03-23 21:35:00,28.9,27.4,30.18,North,351,9.0,21.0,94,0.00,,,0.00,Wunderground v.1.15,2013-03-24 02:35:00,
2013-03-23 21:40:00,28.8,27.3,30.18,North,360,9.0,9.0,94,0.00,,,0.00,Wunderground v.1.15,2013-03-24 02:40:00,
2013-03-23 21:45:00,28.7,26.9,30.18,NNW,331,11.0,11.0,93,0.00,,,0.00,Wunderground v.1.15,2013-03-24 02:45:00,
2013-03-23 21:55:00,28.7,27.2,30.18,North,355,10.0,15.0,94,0.00,,,0.00,Wunderground v.1.15,2013-03-24 02:55:00,
2013-03-23 22:00:00,28.6,27.1,30.18,North,5,10.0,12.0,94,0.00,,,0.00,Wunderground v.1.15,2013-03-24 03:00:00,
2013-03-23 22:05:00,28.2,26.4,30.18,NNW,339,10.0,12.0,93,0.00,,,0.00,Wunderground v.1.15,2013-03-24 03:05:00,
2013-03-23 22:15:00,27.7,25.9,30.18,NNW,346,11.0,12.0,93,0.00,,,0.00,Wunderground v.1.15,2013-03-24 03:15:00,
2013-03-23 22:20:00,27.6,25.8,30.18,NNW,348,10.0,10.0,93,0.00,,,0.00,Wunderground v.1.15,2013-03-24 03:20:00,
2013-03-23 22:25:00,27.5,25.7,30.18,North,5,10.0,11.0,93,0.00,,,0.00,Wunderground v.1.15,2013-03-24 03:25:00,
2013-03-23 22:30:00,27.3,25.5,30.19,NNW,331,11.0,11.0,93,0.00,,,0.00,Wunderground v.1.15,2013-03-24 03:30:00,
2013-03-23 22:40:00,26.9,25.1,30.19,North,5,11.0,11.0,93,0.00,,,0.00,Wunderground v.1.15,2013-03-24 03:40:00,
2013-03-23 22:45:00,26.8,25.0,30.19,North,360,12.0,18.0,93,0.00,,,0.00,Wunderground v.1.15,2013-03-24 03:45:00,
2013-03-23 22:55:00,26.5,24.8,30.20,NNW,341,13.0,19.0,93,0.00,,,0.00,Wunderground v.1.15,2013-03-24 03:55:00,
2013-03-23 23:00:00,26.5,24.8,30.20,North,355,12.0,12.0,93,0.00,,,0.00,Wunderground v.1.15,2013-03-24 04:00:00,
2013-03-23 23:05:00,26.5,24.5,30.21,North,360,12.0,19.0,92,0.00,,,0.00,Wunderground v.1.15,2013-03-24 04:05:00,
2013-03-23 23:10:00,26.5,24.8,30.21,NW,320,12.0,12.0,93,0.00,,,0.00,Wunderground v.1.15,2013-03-24 04:10:00,
2013-03-23 23:15:00,26.5,24.5,30.20,NNE,15,12.0,19.0,92,0.00,,,0.00,Wunderground v.1.15,2013-03-24 04:15:00,
2013-03-23 23:20:00,26.5,24.5,30.21,NNW,335,11.0,11.0,92,0.00,,,0.00,Wunderground v.1.15,2013-03-24 04:20:00,
2013-03-23 23:25:00,26.5,24.5,30.22,North,5,11.0,19.0,92,0.00,,,0.00,Wunderground v.1.15,2013-03-24 04:25:00,
2013-03-23 23:30:00,26.3,24.3,30.22,NNW,348,12.0,12.0,92,0.00,,,0.00,Wunderground v.1.15,2013-03-24 04:30:00,
2013-03-23 23:35:00,26.3,24.3,30.22,North,5,12.0,19.0,92,0.00,,,0.00,Wunderground v.1.15,2013-03-24 04:35:00,
2013-03-23 23:45:00,26.1,24.1,30.22,NNW,347,11.0,19.0,92,0.00,,,0.00,Wunderground v.1.15,2013-03-24 04:45:00,
2013-03-23 23:50:00,26.1,24.1,30.22,NNW,336,12.0,12.0,92,0.00,,,0.00,Wunderground v.1.15,2013-03-24 04:50:00,
2013-03-23 23:55:00,26.1,24.1,30.22,North,355,11.0,19.0,92,0.00,,,0.00,Wunderground v.1.15,2013-03-24 04:55:00,